NZ4D-1 Weather Reports


time (UTC)temp
C
wind
direction
speed
KPH
gust
KPH
rain 1hr
cm
rain 24hr
cm
rain mn
cm
humidity
%
barometer
mb
20260506051005 16 0 0.0 0.0 0.00 0.00 0.00 84 1016.8
20260506045004 16 0 0.0 0.0 0.00 0.00 0.00 83 1017.1
20260506044004 16 0 0.0 0.0 0.00 0.00 0.00 82 1017.2
20260506042005 17 0 0.0 0.0 0.00 0.00 0.00 80 1017.2
20260506041005 17 0 0.0 0.0 0.00 0.00 0.00 80 1017.3
20260506035004 17 0 0.0 0.0 0.00 0.00 0.00 79 1017.4
20260506033005 17 0 0.0 0.0 0.00 0.00 0.00 78 1017.3
20260506032005 17 0 0.0 0.0 0.00 0.00 0.00 77 1017.4
20260506031004 17 0 0.0 0.0 0.00 0.00 0.00 76 1017.4
20260506030004 18 0 0.0 0.0 0.00 0.00 0.00 76 1017.4
20260506024004 18 0 0.0 0.0 0.00 0.00 0.00 75 1017.4
20260506023005 18 0 0.0 0.0 0.00 0.00 0.00 74 1017.3
20260506022004 18 0 0.0 0.0 0.00 0.00 0.00 74 1017.2
20260506021004 18 0 0.0 0.0 0.00 0.00 0.00 73 1017.2
20260506020004 19 0 0.0 0.0 0.00 0.00 0.00 73 1017.1
20260506015005 19 0 0.0 0.0 0.00 0.00 0.00 73 1017.1
20260506014004 19 0 0.0 0.0 0.00 0.00 0.00 73 1017.0
20260506013004 20 0 0.0 3.2 0.00 0.00 0.00 73 1017.0
20260506012004 20 0 0.0 0.0 0.00 0.00 0.00 73 1016.9
20260506011004 20 0 0.0 16.1 0.00 0.00 0.00 72 1016.9
20260506010005 20 0 0.0 12.9 0.00 0.00 0.00 71 1016.7
20260506005004 20 0 0.0 12.9 0.00 0.00 0.00 70 1016.5
20260506004004 21 0 0.0 0.0 0.00 0.00 0.00 70 1016.5
20260506003004 21 0 0.0 12.9 0.00 0.00 0.00 69 1016.3
20260506002004 21 0 0.0 3.2 0.00 0.00 0.00 68 1016.2
20260506001004 21 0 0.0 4.8 0.00 0.00 0.00 67 1016.1
20260506000007 21 0 0.0 0.0 0.00 0.00 0.00 66 1016.1
20260505235004 22 0 0.0 14.5 0.00 0.00 0.00 66 1016.1
20260505234004 22 0 0.0 4.8 0.00 0.00 0.00 65 1016.2
20260505231004 23 214 1.6 19.3 0.00 0.00 0.00 63 1015.8
20260505230004 23 0 0.0 12.9 0.00 0.00 0.00 62 1015.8
20260505225004 23 0 0.0 19.3 0.00 0.00 0.00 61 1015.9
20260505223003 24 0 0.0 19.3 0.00 0.00 0.00 60 1015.7
20260505222004 24 0 0.0 0.0 0.00 0.00 0.00 58 1015.6
20260505221004 24 0 0.0 9.7 0.00 0.00 0.00 57 1015.7
20260505220004 25 0 0.0 0.0 0.00 0.00 0.00 56 1015.7
20260505215005 25 0 0.0 14.5 0.00 0.00 0.00 55 1015.7
20260505213004 25 211 0.0 9.7 0.00 0.00 0.00 55 1015.7
20260505210004 25 209 0.0 9.7 0.00 0.00 0.00 53 1015.5
20260505205004 25 0 0.0 9.7 0.00 0.00 0.00 54 1015.4
20260505204004 25 0 0.0 0.0 0.00 0.00 0.00 53 1015.5
20260505203004 25 0 0.0 0.0 0.00 0.00 0.00 54 1015.5
20260505202003 25 0 0.0 9.7 0.00 0.00 0.00 53 1015.7
20260505201004 26 0 0.0 16.1 0.00 0.00 0.00 51 1015.9
20260505200003 26 0 0.0 19.3 0.00 0.00 0.00 51 1015.8
20260505195004 26 0 0.0 0.0 0.00 0.00 0.00 50 1016.0
20260505194012 26 0 0.0 19.3 0.00 0.00 0.00 50 1016.2
20260505193003 26 0 0.0 12.9 0.00 0.00 0.00 50 1016.4
20260505192004 26 0 0.0 9.7 0.00 0.00 0.00 49 1016.6
20260505191004 26 0 0.0 0.0 0.00 0.00 0.00 50 1016.8
20260505190005 25 0 0.0 3.2 0.00 0.00 0.00 52 1016.9
20260505185004 25 0 0.0 3.2 0.00 0.00 0.00 51 1016.9
20260505184004 25 0 0.0 0.0 0.00 0.00 0.00 52 1017.1
20260505180004 25 0 0.0 4.8 0.00 0.00 0.00 52 1017.4
20260505175004 25 0 0.0 14.5 0.00 0.00 0.00 54 1017.3
20260505174003 25 0 0.0 9.7 0.00 0.00 0.00 51 1017.3
20260505173003 25 0 0.0 0.0 0.00 0.00 0.00 53 1017.4
20260505171003 25 0 0.0 0.0 0.00 0.00 0.00 54 1017.6
20260505165006 25 0 0.0 3.2 0.00 0.00 0.00 53 1017.8
20260505164006 25 0 0.0 0.0 0.00 0.00 0.00 55 1018.0
20260505163007 25 0 0.0 0.0 0.00 0.00 0.00 54 1018.1
20260505162005 25 0 0.0 0.0 0.00 0.00 0.00 55 1018.4
20260505161005 24 0 0.0 0.0 0.00 0.00 0.00 56 1018.4
20260505153005 24 0 0.0 4.8 0.00 0.00 0.00 58 1018.5
20260505152005 23 0 0.0 4.8 0.00 0.00 0.00 63 1018.5
20260505151005 23 0 0.0 0.0 0.00 0.00 0.00 62 1018.6
20260505125005 16 0 0.0 0.0 0.00 0.00 0.00 87 1018.9
20260505124005 15 0 0.0 0.0 0.00 0.00 0.00 89 1019.0
20260505123005 14 0 0.0 0.0 0.00 0.00 0.00 93 1018.8
20260505122005 13 0 0.0 0.0 0.00 0.00 0.00 95 1018.8
20260505121005 12 0 0.0 0.0 0.00 0.00 0.00 96 1018.8
20260505120005 12 0 0.0 3.2 0.00 0.00 0.00 96 1018.7
20260505115005 11 0 0.0 0.0 0.00 0.00 0.00 96 1018.6
20260505114005 11 0 0.0 0.0 0.00 0.00 0.00 95 1018.5
20260505113006 11 0 0.0 0.0 0.00 0.00 0.00 95 1018.4
20260505112005 10 0 0.0 0.0 0.00 0.00 0.00 94 1018.4
20260505111005 10 0 0.0 0.0 0.00 0.00 0.00 93 1018.2
20260505102006 10 0 0.0 0.0 0.00 0.00 0.00 90 1017.7
20260505101004 10 0 0.0 0.0 0.00 0.00 0.00 90 1017.5
20260505100005 11 0 0.0 0.0 0.00 0.00 0.00 90 1017.4
20260505095005 11 0 0.0 0.0 0.00 0.00 0.00 89 1017.3
20260505093005 11 0 0.0 0.0 0.00 0.00 0.00 88 1017.2
20260505092004 11 0 0.0 0.0 0.00 0.00 0.00 88 1017.1
20260505091005 11 0 0.0 0.0 0.00 0.00 0.00 87 1017.1
20260505090005 11 0 0.0 0.0 0.00 0.00 0.00 86 1017.0
20260505084005 12 0 0.0 0.0 0.00 0.00 0.00 85 1016.8
20260505083005 12 0 0.0 0.0 0.00 0.00 0.00 85 1016.9
20260505082005 12 0 0.0 0.0 0.00 0.00 0.00 85 1016.8
20260505081005 12 0 0.0 0.0 0.00 0.00 0.00 85 1016.7
20260505080015 12 0 0.0 0.0 0.00 0.00 0.00 85 1016.7
20260505075005 13 0 0.0 0.0 0.00 0.00 0.00 84 1016.7
20260505073005 13 0 0.0 0.0 0.00 0.00 0.00 82 1016.7
20260505072004 13 0 0.0 0.0 0.00 0.00 0.00 82 1016.5
20260505071005 13 0 0.0 0.0 0.00 0.00 0.00 81 1016.4
20260505063004 14 0 0.0 0.0 0.00 0.00 0.00 79 1016.6
20260505062005 14 0 0.0 0.0 0.00 0.00 0.00 79 1016.6
20260505060011 15 0 0.0 0.0 0.00 0.00 0.00 77 1016.8